{"data":{"norad_id":67182,"epoch":"2026-05-24T23:00:42.581088Z","epoch_age_seconds":68666,"freshness":"FRESH","line1":"1 67182U 25303V   26144.95882617  .00017464  00000+0  64237-3 0  9996","line2":"2 67182  43.0011 239.6258 0001088 275.8324  84.2404 15.27594214 24400","mean_motion":15.27594214,"eccentricity":0.0001088,"inclination_deg":43.0011,"raan_deg":239.6258,"arg_perigee_deg":275.8324,"mean_anomaly_deg":84.2404,"bstar":0.00064237,"rev_number":2440,"period_min":94.265871577856,"perigee_km":482.26004212366,"apogee_km":483.75302695678,"semimajor_km":6861.1435345402,"source":"CELESTRAK","updated_at":"2026-05-25T13:38:21.483803Z"}}